FW3284 Weather Reports


time (UTC)temp
F
wind
direction
speed
knots
gust
knots
rain 1hr
in
rain 24hr
in
rain mn
in
humidity
%
barometer
mb
20260906171522 96 105 3.5 7.0 0.00 0.00 0.00 42 1013.0
20260906170008 96 81 2.6 6.1 0.00 0.00 0.00 44 1013.1
20260906164548 95 54 1.7 5.2 0.00 0.00 0.00 45 1013.3
20260906163028 95 46 0.9 3.5 0.00 0.00 0.00 47 1013.4
20260906161601 93 51 1.7 5.2 0.00 0.00 0.00 48 1013.5
20260906161505 93 182 2.6 5.2 0.00 0.00 0.00 48 1013.5
20260906160035 92 98 1.7 7.0 0.00 0.00 0.00 51 1013.6
20260906154509 91 152 0.0 4.3 0.00 0.00 0.00 55 1013.5
20260906153048 90 60 0.0 5.2 0.00 0.00 0.00 55 1013.5
20260906151528 89 111 3.5 5.2 0.00 0.00 0.00 56 1013.4
20260906150009 89 70 2.6 4.3 0.00 0.00 0.00 55 1013.4
20260906144547 88 73 0.9 3.5 0.00 0.00 0.00 56 1013.4
20260906143026 87 131 2.6 4.3 0.00 0.00 0.00 57 1013.4
20260906141513 86 171 0.9 2.6 0.00 0.00 0.00 59 1013.3
20260906140052 84 129 1.7 2.6 0.00 0.00 0.00 63 1013.2
20260906134522 82 122 0.9 3.5 0.00 0.00 0.00 65 1013.2
20260906133122 80 120 1.7 3.5 0.00 0.00 0.00 68 1013.1
20260906131540 79 143 0.0 1.7 0.00 0.00 0.00 70 1013.1
20260906130022 77 114 1.7 3.5 0.00 0.00 0.00 73 1013.0
20260906124504 75 141 0.9 1.7 0.00 0.00 0.00 75 1013.1
20260906123043 74 141 0.0 1.7 0.00 0.00 0.00 78 1012.8
20260906121525 73 133 0.9 1.7 0.00 0.00 0.00 79 1012.5
20260906120008 73 133 0.9 1.7 0.00 0.00 0.00 79 1012.4
20260906114549 71 117 0.9 1.7 0.00 0.00 0.00 82 1012.3
20260906113026 71 122 0.9 1.7 0.00 0.00 0.00 82 1012.2
20260906111506 72 146 0.0 0.9 0.00 0.00 0.00 80 1012.0
20260906110043 73 146 0.9 1.7 0.00 0.00 0.00 79 1012.0
20260906104525 73 134 0.9 1.7 0.00 0.00 0.00 79 1012.0
20260906103008 73 167 0.9 0.9 0.00 0.00 0.00 79 1012.0
20260906101540 74 167 0.9 0.9 0.00 0.00 0.00 78 1011.9
20260906100023 74 167 0.0 1.7 0.00 0.00 0.00 75 1011.8
20260906094554 75 167 0.0 0.9 0.00 0.00 0.00 74 1011.7
20260906093032 76 210 0.0 1.7 0.00 0.00 0.00 70 1011.6
20260906091519 76 205 0.0 0.0 0.00 0.00 0.00 70 1011.5
20260906090053 76 205 0.0 0.0 0.00 0.00 0.00 69 1011.4
20260906084530 77 205 0.0 1.7 0.00 0.00 0.00 67 1011.3
20260906083013 77 205 0.0 1.7 0.00 0.00 0.00 67 1011.3
20260906081552 78 149 0.0 1.7 0.00 0.00 0.00 67 1011.3
20260906080034 78 113 1.7 2.6 0.00 0.00 0.00 66 1011.3
20260906074512 78 118 0.9 2.6 0.00 0.00 0.00 66 1011.3
20260906073053 78 124 0.9 1.7 0.00 0.00 0.00 65 1011.5
20260906071526 78 133 0.9 2.6 0.00 0.00 0.00 66 1011.4
20260906070007 78 153 0.9 1.7 0.00 0.00 0.00 66 1011.5
20260906064532 78 158 0.9 2.6 0.00 0.00 0.00 66 1011.7
20260906063010 79 124 0.0 0.9 0.00 0.00 0.00 65 1011.8
20260906061554 79 124 0.0 1.7 0.00 0.00 0.00 64 1011.8
20260906060059 80 136 0.0 1.7 0.00 0.00 0.00 63 1011.8
20260906054552 79 135 0.0 1.7 0.00 0.00 0.00 64 1011.9
20260906053010 79 135 0.0 1.7 0.00 0.00 0.00 65 1011.8
20260906051606 79 135 0.0 1.7 0.00 0.00 0.00 64 1011.8
20260906050024 78 129 0.9 0.9 0.00 0.00 0.00 67 1011.8
20260906044606 79 129 0.0 1.7 0.00 0.00 0.00 65 1011.7
20260906043036 79 126 0.9 2.6 0.00 0.00 0.00 64 1011.8
20260906041519 79 121 0.9 1.7 0.00 0.00 0.00 64 1011.9
20260906040136 80 124 0.9 2.6 0.00 0.00 0.00 63 1011.8
20260906034545 80 141 0.9 2.6 0.00 0.00 0.00 62 1011.6
20260906033038 81 129 0.9 2.6 0.00 0.00 0.00 61 1011.7
20260906031558 82 128 0.0 2.6 0.00 0.00 0.00 59 1011.4
20260906031508 82 128 0.0 2.6 0.00 0.00 0.00 59 1011.4
20260906030040 82 105 0.0 1.7 0.00 0.00 0.00 60 1011.2
20260906024524 82 109 0.9 1.7 0.00 0.00 0.00 61 1011.2
20260906023008 83 122 0.0 1.7 0.00 0.00 0.00 58 1010.9
20260906021550 83 157 0.9 1.7 0.00 0.00 0.00 59 1010.9
20260906020030 83 132 1.7 2.6 0.00 0.00 0.00 58 1010.7
20260906014516 84 122 1.7 3.5 0.00 0.00 0.00 57 1010.4
20260906013058 84 143 0.9 3.5 0.00 0.00 0.00 56 1010.4
20260906013001 84 143 0.9 3.5 0.00 0.00 0.00 56 1010.4
20260906011538 85 150 0.0 1.7 0.00 0.00 0.00 56 1010.1
20260906010022 86 127 0.9 3.5 0.00 0.00 0.00 54 1010.1
20260906004507 87 124 3.5 6.1 0.00 0.00 0.00 54 1010.4
20260906003043 88 115 6.1 9.6 0.00 0.00 0.00 52 1010.5
20260906001523 90 103 0.9 2.6 0.00 0.00 0.00 47 1010.2
20260906000005 91 132 1.7 3.5 0.00 0.00 0.00 46 1010.1
20260905234547 91 129 1.7 7.8 0.00 0.00 0.00 45 1009.9
20260905233025 92 126 3.5 11.3 0.00 0.00 0.00 43 1009.9
20260905231518 96 97 1.7 6.1 0.00 0.00 0.00 36 1009.8
20260905230100 95 34 4.3 12.2 0.00 0.00 0.00 34 1009.9
20260905224606 91 72 7.8 15.6 0.00 0.00 0.00 43 1009.9
20260905223004 98 53 3.5 11.3 0.00 0.00 0.00 39 1010.1
20260905221546 99 359 0.0 4.3 0.00 0.00 0.00 36 1009.7
20260905220024 101 67 1.7 2.6 0.00 0.00 0.00 35 1009.8
20260905214510 101 320 0.0 3.5 0.00 0.00 0.00 34 1009.8
20260905213055 102 219 0.0 2.6 0.00 0.00 0.00 34 1009.9
20260905211540 100 174 0.9 4.3 0.00 0.00 0.00 35 1010.1
20260905210016 100 90 0.9 2.6 0.00 0.00 0.00 35 1010.3
20260905204540 101 127 0.9 3.5 0.00 0.00 0.00 35 1010.6
20260905203022 99 346 0.0 4.3 0.00 0.00 0.00 37 1010.7
20260905201504 100 33 0.0 3.5 0.00 0.00 0.00 36 1010.9
20260905200048 98 37 2.6 7.0 0.00 0.00 0.00 37 1011.1
20260905194531 100 302 0.9 3.5 0.00 0.00 0.00 36 1011.3
20260905193010 98 256 0.9 4.3 0.00 0.00 0.00 39 1011.4
20260905191547 98 173 1.7 4.3 0.00 0.00 0.00 39 1011.7
20260905190028 96 83 4.3 7.0 0.00 0.00 0.00 40 1012.1
20260905184524 95 32 0.9 8.7 0.00 0.00 0.00 42 1012.2
20260905183050 97 53 4.3 7.8 0.00 0.00 0.00 40 1012.4
20260905181533 97 16 1.7 6.1 0.00 0.00 0.00 41 1012.7
20260905180017 96 355 1.7 5.2 0.00 0.00 0.00 43 1012.8
20260905174554 96 70 0.0 7.0 0.00 0.00 0.00 44 1013.1
20260905173047 95 42 0.9 5.2 0.00 0.00 0.00 44 1013.3